Weather Roundup
Issued by NWS Chicago, IL

Home | Current Version | Previous Version | Graphics & Text | Print | Product List | Glossary On
Versions: 1 2 3 4 5 6 7 8 9 10 11 12 13 14 15 16 17 18 19 20 21 22 23 24 25 26 27 28 29 30 31 32 33 34 35 36 37 38 39 40 41 42 43 44 45 46 47 48 49 50
000
NZUS59 KLOT 191710
HRRLOT

CHICAGO AREA WEATHER ROUNDUP
NATIONAL WEATHER SERVICE CHICAGO/ROMEOVILLE IL
1200 PM CDT FRI SEP 19 2014

NOTE: "FAIR" INDICATES FEW OR NO CLOUDS BELOW 12,000 FEET WITH NO
SIGNIFICANT WEATHER AND/OR OBSTRUCTIONS TO VISIBILITY.

* THESE STATIONS ARE NOT UNDER NWS QUALITY CONTROL. THEY ALSO MAY NOT
  REPORT WEATHER SUCH AS PRECIPITATION OR FOG.

ILZ005-006-012>014-019>023-191800-
NORTHEAST ILLINOIS

CITY           SKY/WX    TMP DP  RH WIND       PRES   REMARKS
OHARE          MOSUNNY   71  51  49 S14G22    30.13F
MIDWAY         MOSUNNY   72  48  42 S15       30.13F
AURORA         SUNNY     71  50  47 S18G25    30.14F
LANSING*       SUNNY     69  52  53 S13       30.15F
JOLIET*        SUNNY     70  47  42 S12G17    30.15S
WAUKEGAN       SUNNY     69  51  52 S14       30.12F
DUPAGE AIRPORT SUNNY     71  50  47 S17       30.13F
WHEELING       SUNNY     72  50  45 S16       30.15F
KANKAKEE*      SUNNY     72  48  43 SE10      30.14F
MORRIS*        SUNNY     73  50  45 SE13G18   30.13F
LEWIS AIRPORT* SUNNY     70  47  44 S15       30.14S
NORTHERLY IS     N/A     70  47  43 S12         N/A
$$

WIZ051-052-058>065-066-070>072-191800-
SOUTHEAST WISCONSIN

CITY           SKY/WX    TMP DP  RH WIND       PRES   REMARKS
MILWAUKEE      PTSUNNY   70  51  51 SW17G26   30.10F
KENOSHA*       SUNNY     70  52  52 S15G22    30.12S
RACINE*        SUNNY     67  55  65 SE13      30.13S
BURLINGTON     SUNNY     69  50  49 S14G23    30.11F
WAUKESHA       MOSUNNY   66  52  59 S14G22    30.11F
WEST BEND      SUNNY     70  50  49 S14       30.08F
$$

INZ001>003-010>013-019-020-191800-
NORTHWEST INDIANA

CITY           SKY/WX    TMP DP  RH WIND       PRES   REMARKS
GARY*          MOSUNNY   70  50  49 SE12      30.15F
MICHIGAN CITY* NOT AVBL
RENSSELAER*    NOT AVBL
VALPARAISO     SUNNY     69  50  50 S12       30.17F
$$

LMZ740>746-191800-
SOUTHERN LAKE MICHIGAN

STATION/POSITION TIME  SKY/WX   TEMP WIND        PRES    VSBY
                                AIR  DIR/SP/G
                 (UTC)          (F)  (DEG/KT/KT) (MB)    (MI)
HARRISON CRIB    1700            64  150/ 13/ 17   N/A
BURNHAM HARBOR   1700            70  160/ 10/ 12   N/A
CALUMET HARBOR   1700            69  150/  7/ 10 1019.5F
BURNS HARBOR     NOT AVBL
MICHIGAN CITY    1700            66  160/ 10/ 16   N/A
$$

ABBREVIATIONS USED IN REMARKS
   TC - TEMPERATURE IN CELSIUS
  WCI - WIND CHILL INDEX
   HX - HEAT INDEX
  VSB - VISIBILITY
$$



USA.gov is the U.S. government's official web portal to all federal, state and local government web resources and services.